Weather in Pecky

Czech Republic     50°05′25″N   15°01′48″E
temp.,
°C
wind,
m/s
gust,
m/s
humid.,
%
clouds,
%
prec.,
mm/h
press.,
hPa
HPBL,
m
14 may, fri
fri1423:00+8w71196100 2.6 1004611
02:00+8w71295100 5.6 1005624
05:00+8w61294100 0.5 1005750
08:00+8w5995100 3.7 1006508
11:00+9w3696100 4.1 1008382
14:00+11w3588100 5.6 1008513
17:00+14w3477100 0.8 1007844
20:00+11w2288100 2.1 100824
15 may, sat
sat1523:00+9sw2290100 0.1 100913
02:00+8sw229110 0.1 101014
05:00+7sw229162 0.0 101019
08:00+11sw358280 0.0 1011286
11:00+14w2370100 0.1 1010896
14:00+16sw3460100 0.7 10081402
17:00+16ssw2366100 1.4 1007975
20:00+12s2280100 4.1 100618
16 may, sun
sun1623:00+11sw1185100 0.6 100617
02:00+9w61292100 0.6 1009527
05:00+7wsw4109289 0.1 1009360
08:00+9wsw6108618 0.1 1010603
11:00+12wsw577191 0.1 10091161
14:00+13w356584 0.1 1008968
17:00+14sw247215 0.5 1007860
20:00+12sw3584100 1.6 1007103
17 may, mon
mon1723:00+9sw51191100 0.1 1008322
02:00+8ssw4119488 0.1 1009240
05:00+8sw4119191 0.0 1007300
08:00+10sw41087100 0.0 1008616
11:00+12wsw6972100 0.3 10091075
14:00+13w10116843 0.6 10091297
17:00+14w586967 0.3 10091612
20:00+10wsw510805 0.8 1010334
18 may, tue
tue1823:00+8sw512895 0.0 1011356
02:00+7sw5129116 0.0 1012317
05:00+6sw511907 0.0 1011292
08:00+10wsw6118079 0.0 1012683
11:00+11w687655 0.4 10121097
14:00+13w8970100 1.4 10121386
17:00+14w596244 0.1 10121648
20:00+10wsw510777 0.4 1013286